Lima, OH

12:48 AM EST on February 21, 2018 (GMT -0500)
Lima Allen County

Weather History for KAOH - November, 2012

Change the Weather History Date:

Sunday, November 25, 2012

  Actual Average (KFDY) Record (KFDY)
Temperature  
Mean Temperature 36 °F -  
Max Temperature 43 °F 44 °F 64 °F (2006)
Min Temperature 28 °F 29 °F 5 °F (1950)
Degree Days  
Heating Degree Days 30    
Moisture  
Dew Point 24 °F    
Average Humidity 64    
Maximum Humidity 73    
Minimum Humidity 51    
Precipitation  
Precipitation 0.00 in - - ()
Sea Level Pressure  
Sea Level Pressure 29.97 in    
Wind  
Wind Speed 10 mph (SW)    
Max Wind Speed 16 mph    
Max Gust Speed 23 mph    
Visibility 10 miles    
Events      
Averages and records for this station are not official NWS values.
T = Trace of Precipitation, MM = Missing Value Source: NWS Daily Summary

Daily Weather History Graph

Daily Weather History Graph

Search for Another Location

Airport or City:

Trip Planner

Search our weather history database for the weather conditions in past years. The results will help you decide how hot, cold, wet, or windy it might be!

Date:

Astronomy

Nov. 25, 2012 Rise Set
Actual Time 7:34 AM EST 5:11 PM EST
Civil Twilight 7:04 AM EST 5:41 PM EST
Nautical Twilight 6:31 AM EST 6:15 PM EST
Astronomical Twilight 5:58 AM EST 6:47 PM EST
Moon 3:28 PM EST (11/25) 4:47 AM EST (11/25)
Length of Visible Light 10h 36m
Length of Day
9h 36m
Waxing Gibbous, 93% of the Moon is Illuminated
Nov 25
Waxing Gibbous
Nov 28
Full
Dec 6
Last Quarter
Dec 13
New
Dec 20
First Quarter

Hourly Weather History & Observations

Time (EST) Temp. Windchill Dew Point Humidity Pressure Visibility Wind Dir Wind Speed Gust Speed Precip Events Conditions
12:53 AM 30.0 °F 22.4 °F 19.9 °F 66% 30.10 in 10.0 mi SW 8.1 mph - N/A   Overcast
1:13 AM 30.2 °F 23.4 °F 19.4 °F 64% 30.05 in 10.0 mi SW 6.9 mph - N/A   Mostly Cloudy
1:53 AM 28.9 °F 21.9 °F 19.9 °F 69% 30.06 in 10.0 mi SSW 6.9 mph - N/A   Overcast
2:53 AM 28.9 °F 19.8 °F 19.0 °F 67% 30.06 in 10.0 mi SSW 10.4 mph - N/A   Overcast
3:53 AM 28.9 °F 21.9 °F 19.9 °F 69% 30.04 in 10.0 mi SSW 6.9 mph - N/A   Mostly Cloudy
4:53 AM 28.9 °F 19.8 °F 19.9 °F 69% 30.02 in 10.0 mi SSW 10.4 mph - N/A   Overcast
5:53 AM 28.9 °F 19.8 °F 19.9 °F 69% 29.99 in 10.0 mi SSW 10.4 mph - N/A   Overcast
6:53 AM 30.0 °F 19.1 °F 21.0 °F 69% 29.96 in 10.0 mi SSW 15.0 mph - N/A   Overcast
7:53 AM 30.0 °F 19.5 °F 21.0 °F 69% 29.94 in 10.0 mi South 13.8 mph 20.7 mph N/A   Overcast
8:53 AM 30.9 °F 20.7 °F 21.0 °F 67% 29.95 in 10.0 mi SSW 13.8 mph 20.7 mph N/A   Overcast
9:53 AM 33.1 °F 23.9 °F 21.9 °F 64% 29.94 in 10.0 mi SSW 12.7 mph 20.7 mph N/A   Clear
10:53 AM 37.0 °F 28.1 °F 23.0 °F 57% 29.93 in 10.0 mi SW 15.0 mph 23.0 mph N/A   Clear
11:53 AM 39.9 °F 31.8 °F 24.1 °F 53% 29.91 in 10.0 mi WSW 15.0 mph 23.0 mph N/A   Clear
12:53 PM 42.1 °F 34.2 °F 25.0 °F 51% 29.88 in 10.0 mi West 16.1 mph - N/A   Clear
1:53 PM 43.0 °F 35.4 °F 26.1 °F 51% 29.88 in 10.0 mi WSW 16.1 mph - N/A   Clear
2:53 PM 43.0 °F 35.4 °F 26.1 °F 51% 29.88 in 10.0 mi WSW 16.1 mph - N/A   Clear
3:53 PM 43.0 °F 36.4 °F 27.0 °F 53% 29.89 in 10.0 mi WSW 12.7 mph - N/A   Clear
4:53 PM 41.0 °F 35.8 °F 27.0 °F 57% 29.91 in 10.0 mi WSW 8.1 mph - N/A   Clear
5:53 PM 37.9 °F 34.4 °F 26.1 °F 62% 29.92 in 10.0 mi WSW 4.6 mph - N/A   Clear
6:53 PM 36.0 °F 31.1 °F 26.1 °F 67% 29.95 in 10.0 mi SW 5.8 mph - N/A   Clear
7:53 PM 35.1 °F 28.6 °F 27.0 °F 72% 29.98 in 10.0 mi WSW 8.1 mph - N/A   Clear
8:53 PM 36.0 °F 30.3 °F 27.0 °F 70% 29.98 in 10.0 mi WSW 6.9 mph - N/A   Clear
9:53 PM 35.1 °F 29.3 °F 27.0 °F 72% 30.00 in 10.0 mi WSW 6.9 mph - N/A   Scattered Clouds
10:53 PM 36.0 °F 29.0 °F 28.0 °F 73% 30.01 in 10.0 mi NW 9.2 mph - N/A   Clear
11:53 PM 35.1 °F 30.1 °F 27.0 °F 72% 30.04 in 10.0 mi NW 5.8 mph - N/A   Scattered Clouds